Weather History for Buffalo, WY

Change the Weather History Date:

Friday, July 5, 2013

  Actual Average Record
Temperature  
Mean Temperature 70 °F 69 °F  
Max Temperature 80 °F 83 °F 99 °F (2001)
Min Temperature 60 °F 55 °F 46 °F (2004)
Degree Days  
Heating Degree Days 0 1  
Month to date heating degree days 0 8  
Since 1 June heating degree days 100 171  
Since 1 July heating degree days 0 8  
Cooling Degree Days 5 5  
Month to date cooling degree days 40 23  
Year to date cooling degree days 127 81  
Since 1 June cooling degree days 117 74  
Growing Degree Days 19 (Base 50)    
Moisture  
Dew Point 56 °F    
Average Humidity 65    
Maximum Humidity 84    
Minimum Humidity 45    
Precipitation  
Precipitation 0.00 in 0.05 in 0.34 in (2002)
Month to date precipitation T 0.26  
Year to date precipitation 4.08 8.06  
Sea Level Pressure  
Sea Level Pressure 29.76 in    
Wind  
Wind Speed 10 mph (WNW)    
Max Wind Speed 30 mph    
Max Gust Speed 44 mph    
Visibility 10 miles    
Events Rain , Thunderstorm    
T = Trace of Precipitation, MM = Missing Value Source: NWS Daily Summary

Daily Weather History Graph

Daily Weather History Graph

Search for Another Location

Airport:

Trip Planner

Search our weather history database for the weather conditions in past years. The results will help you decide how hot, cold, wet, or windy it might be!

Date:

Astronomy

Jul. 05, 2013 Rise Set
Actual Time 5:29 AM MDT 8:53 PM MDT
Civil Twilight 4:52 AM MDT 9:29 PM MDT
Nautical Twilight 4:05 AM MDT 10:17 PM MDT
Astronomical Twilight 3:05 AM MDT 11:16 PM MDT
Moon 3:32 AM MDT (7/5) 6:48 PM MDT (7/5)
Length of Visible Light 16h 37m
Length of Day
15h 24m
Waning Crescent, 6% of the Moon is Illuminated
Jul 5
Waning Crescent
Jul 8
New
Jul 15
First Quarter
Jul 22
Full
Jul 29
Last Quarter

Hourly Weather History & Observations

Time (MDT) Temp. Dew Point Humidity Pressure Visibility Wind Dir Wind Speed Gust Speed Precip Events Conditions
12:53 AM 61.0 °F 55.9 °F 83% 29.86 in 10.0 mi South 9.2 mph - N/A Rain Light Rain
1:53 AM 61.0 °F 55.0 °F 81% 29.82 in 10.0 mi South 11.5 mph - N/A   Mostly Cloudy
2:53 AM 61.0 °F 55.0 °F 81% 29.77 in 10.0 mi South 11.5 mph - N/A   Mostly Cloudy
3:53 AM 62.1 °F 54.0 °F 75% 29.71 in 10.0 mi South 17.3 mph - N/A   Partly Cloudy
4:53 AM 61.0 °F 53.1 °F 75% 29.68 in 10.0 mi SSW 5.8 mph - N/A   Clear
5:53 AM 60.1 °F 53.1 °F 78% 29.68 in 10.0 mi SW 4.6 mph - N/A   Clear
6:53 AM 66.9 °F 55.0 °F 66% 29.68 in 10.0 mi WNW 8.1 mph - N/A   Clear
7:53 AM 71.1 °F 55.0 °F 57% 29.70 in 10.0 mi NW 6.9 mph - N/A   Clear
8:53 AM 73.0 °F 54.0 °F 51% 29.72 in 10.0 mi North 8.1 mph - N/A   Clear
9:53 AM 75.9 °F 53.1 °F 45% 29.71 in 10.0 mi North 8.1 mph - N/A   Clear
10:53 AM 75.9 °F 55.0 °F 48% 29.73 in 10.0 mi NNW 10.4 mph - N/A   Clear
11:53 AM 78.1 °F 55.0 °F 45% 29.73 in 10.0 mi North 17.3 mph 24.2 mph N/A   Partly Cloudy
12:53 PM 75.9 °F 55.0 °F 48% 29.76 in 10.0 mi North 17.3 mph 23.0 mph N/A   Overcast
1:53 PM 77.0 °F 57.0 °F 50% 29.77 in 10.0 mi North 20.7 mph 25.3 mph N/A   Scattered Clouds
2:53 PM 78.1 °F 57.0 °F 48% 29.76 in 10.0 mi NNW 19.6 mph 26.5 mph N/A   Scattered Clouds
3:53 PM 75.9 °F 55.9 °F 50% 29.75 in 10.0 mi North 19.6 mph 26.5 mph N/A   Mostly Cloudy
4:53 PM 73.9 °F 55.0 °F 52% 29.76 in 10.0 mi North 20.7 mph 28.8 mph N/A   Clear
5:53 PM 64.9 °F 57.9 °F 78% 29.81 in 5.0 mi NW 18.4 mph 26.5 mph N/A Rain , Thunderstorm Heavy Rain
6:14 PM 66.2 °F 57.2 °F 73% 29.93 in 7.0 mi SW 10.4 mph - N/A Rain Light Rain
6:30 PM 66.2 °F 57.2 °F 73% 29.91 in 10.0 mi South 3.5 mph - N/A Thunderstorm Mostly Cloudy
6:45 PM 68.0 °F 59.0 °F 73% 29.89 in 10.0 mi ENE 4.6 mph - N/A   Scattered Clouds
6:53 PM 66.9 °F 57.9 °F 73% 29.75 in 10.0 mi Calm Calm - N/A   Partly Cloudy
7:53 PM 69.1 °F 55.9 °F 63% 29.74 in 10.0 mi East 3.5 mph - N/A   Scattered Clouds
8:53 PM 66.9 °F 55.0 °F 66% 29.73 in 10.0 mi Calm Calm - N/A   Clear
9:53 PM 64.0 °F 55.9 °F 75% 29.75 in 10.0 mi WNW 4.6 mph - N/A   Clear
10:53 PM 64.0 °F 55.9 °F 75% 29.76 in 10.0 mi SE 3.5 mph - N/A   Partly Cloudy
11:53 PM 63.0 °F 55.0 °F 75% 29.76 in 10.0 mi SW 6.9 mph - N/A   Mostly Cloudy